FW9818 Weather Reports


time (UTC)temp
C
wind
direction
speed
KPH
gust
KPH
rain 1hr
cm
rain 24hr
cm
rain mn
cm
humidity
%
barometer
mb
20260505164606 11 53 1.6 9.7 0.00 1.12 0.33 87 1008.5
20260505163021 11 37 1.6 14.5 0.00 1.12 0.33 87 1008.6
20260505161603 11 44 3.2 16.1 0.00 1.12 0.33 87 1008.6
20260505153123 11 34 4.8 11.3 0.03 1.12 0.33 87 1008.7
20260505151614 11 74 3.2 9.7 0.03 1.12 0.33 87 1008.7
20260505150113 11 44 3.2 9.7 0.00 1.09 0.30 87 1008.9
20260505140117 11 32 4.8 14.5 0.00 1.09 0.30 87 1009.1
20260505124522 10 47 6.4 14.5 0.00 1.09 0.30 88 1009.6
20260505123009 10 47 6.4 11.3 0.00 1.09 0.30 88 1009.6
20260505121543 10 52 4.8 12.9 0.00 1.09 0.30 88 1009.7
20260505120140 10 40 4.8 14.5 0.00 1.09 0.30 88 1009.7
20260505114626 10 29 4.8 12.9 0.00 1.09 0.30 88 1009.7
20260505113127 10 23 6.4 14.5 0.00 1.09 0.30 89 1009.8
20260505111617 10 13 6.4 11.3 0.00 1.09 0.30 89 1009.9
20260505110126 10 75 3.2 11.3 0.00 1.09 0.30 89 1009.9
20260505094503 10 18 6.4 17.7 0.00 1.09 0.30 89 1009.9
20260505093132 10 58 8.0 16.1 0.00 1.09 0.30 89 1010.0
20260505091618 10 13 6.4 16.1 0.00 1.09 0.30 89 1010.0
20260505090124 10 4 4.8 16.1 0.00 1.09 0.30 89 1010.1
20260505084614 10 339 8.0 16.1 0.00 1.09 0.30 89 1010.0
20260505083115 10 31 8.0 16.1 0.00 1.09 0.30 89 1010.1
20260505081619 10 71 1.6 11.3 0.00 1.09 0.30 89 1010.1
20260505080120 10 357 6.4 16.1 0.00 1.09 0.30 89 1010.0
20260505074605 10 36 3.2 16.1 0.00 1.09 0.30 89 1010.0
20260505073140 10 13 6.4 14.5 0.00 1.09 0.30 89 1010.1
20260505071611 10 34 8.0 19.3 0.00 1.09 0.30 89 1010.2
20260505070115 10 18 9.7 17.7 0.00 1.09 0.30 89 1010.0
20260505064603 10 18 6.4 14.5 0.00 1.09 0.30 89 1010.1
20260505063106 10 55 3.2 12.9 0.00 1.09 0.30 89 1010.1
20260505061558 10 63 3.2 12.9 0.00 1.09 0.30 89 1010.3
20260505060104 10 1 11.3 20.9 0.00 1.09 0.30 88 1010.3
20260505054525 10 340 8.0 20.9 0.00 1.09 0.30 88 1010.3
20260505053057 11 18 6.4 16.1 0.00 1.09 0.30 88 1010.1
20260505051558 11 345 4.8 12.9 0.00 1.09 0.30 88 1010.1
20260505041505 11 346 8.0 16.1 0.00 1.09 0.30 88 1010.0
20260505034554 11 18 1.6 8.0 0.00 1.09 0.30 88 1010.3
20260505033107 11 67 6.4 16.1 0.00 1.09 0.30 88 1010.2
20260505031558 11 23 4.8 12.9 0.00 1.09 0.30 88 1010.2
20260505030019 11 347 6.4 12.9 0.00 1.09 0.30 88 1010.3
20260505024604 12 40 6.4 12.9 0.00 1.09 0.30 88 1010.2
20260505023025 12 354 6.4 17.7 0.00 1.09 0.30 88 1010.3
20260505021553 12 18 3.2 16.1 0.00 1.09 0.30 88 1010.3
20260505020054 12 66 4.8 16.1 0.00 1.09 0.30 88 1010.3
20260505014520 12 27 6.4 12.9 0.00 1.09 0.30 88 1010.3
20260505013125 12 13 8.0 17.7 0.00 1.09 0.30 88 1010.3
20260505011622 12 35 4.8 12.9 0.03 1.09 0.30 88 1010.2
20260505010004 12 27 8.0 14.5 0.03 1.09 0.30 88 1010.4
20260505004505 12 360 6.4 12.9 0.03 1.09 0.30 88 1010.6
20260505003002 13 40 8.0 14.5 0.03 1.09 0.30 88 1010.5
20260505001512 13 2 1.6 11.3 0.03 1.09 0.28 87 1010.6
20260505000139 13 8 6.4 14.5 0.05 1.09 0.28 87 1010.7
20260504234502 13 349 4.8 12.9 0.08 1.09 0.28 88 1010.8
20260504233135 13 331 3.2 11.3 0.15 1.09 0.28 87 1010.8
20260504231508 13 332 0.0 3.2 0.23 1.07 0.25 87 1010.8
20260504230135 13 310 1.6 4.8 0.23 1.04 0.23 87 1010.9
20260504224618 13 315 1.6 3.2 0.20 0.99 0.20 87 1011.0
20260504223115 13 317 1.6 3.2 0.13 0.91 0.13 87 1011.1
20260504221613 13 13 0.0 4.8 0.05 0.84 0.05 87 1011.3
20260504214615 13 302 0.0 3.2 0.05 0.79 0.79 86 1011.5
20260504213128 13 308 0.0 3.2 0.05 0.79 0.79 86 1011.6
20260504211603 13 294 3.2 4.8 0.05 0.79 0.79 86 1011.8
20260504210015 13 314 1.6 3.2 0.03 0.79 0.79 86 1011.9
20260504204552 13 233 0.0 3.2 0.00 0.76 0.76 86 1011.8
20260504203121 13 256 0.0 3.2 0.00 0.76 0.76 86 1011.8
20260504201507 13 299 1.6 4.8 0.00 0.76 0.76 85 1011.7
20260504200116 13 315 3.2 6.4 0.00 0.76 0.76 85 1011.8
20260504193022 13 112 0.0 0.0 0.05 0.79 0.76 83 1011.6
20260504191612 13 112 0.0 3.2 0.10 0.79 0.76 83 1011.6
20260504190011 13 112 0.0 3.2 0.23 0.79 0.76 83 1011.5
20260504184645 14 112 0.0 3.2 0.33 0.76 0.76 83 1011.3
20260504183120 14 98 1.6 3.2 0.41 0.71 0.71 83 1011.4
20260504181615 14 113 0.0 3.2 0.53 0.69 0.66 82 1011.5
20260504180116 14 137 0.0 8.0 0.53 0.56 0.53 81 1011.5
20260504174519 15 106 1.6 11.3 0.41 0.61 0.41 81 1011.6
20260504173009 15 60 1.6 11.3 0.30 0.51 0.30 80 1011.5
20260504171537 16 2 8.0 17.7 0.13 0.33 0.13 76 1011.3
20260504170127 16 358 4.8 14.5 0.00 0.20 0.00 73 1011.2